Wind_Speed
12 13 15 15 15 16 16 15 15 16 16 16 18 22 26 28 30 33 35 35 33 30 28 27 29 31 32 33 34 34 35 36 38 38 39 39 40 40 40 40 40 40 41 41
12 12 11 11 10 11 13 17 21 23 22 23 25 28 30 31 32 33 36 36 33 28 26 27 29 31 31 32 33 35 35 35 36 37 38 38 38 38 38 38 38 39 39 39
11 9 8 8 9 12 15 19 23 27 26 27 28 30 32 33 34 35 36 35 30 26 27 29 31 31 32 33 35 36 36 36 36 37 38 38 38 36 35 36 36 36 36 36
8 10 10 10 12 16 20 22 22 22 27 32 34 36 34 35 35 34 32 30 27 26 27 29 30 32 32 34 36 36 36 36 37 38 38 39 40 39 39 38 38 38 37 37
8 11 11 11 12 16 20 20 19 18 19 23 28 33 28 25 25 25 25 23 22 22 24 28 30 31 32 33 34 36 38 39 40 41 41 41 41 42 42 41 41 40 40 40
7 8 8 8 8 10 11 11 11 12 13 14 17 19 17 16 16 16 18 19 20 23 26 28 29 29 30 31 33 34 37 38 40 42 43 43 43 43 43 42 42 41 41 41
4 5 5 5 5 5 6 6 6 8 10 10 12 15 15 15 15 17 20 22 25 26 27 27 28 28 29 29 31 32 34 36 38 40 41 43 43 44 44 44 43 42 41 40
5 5 6 6 7 8 8 8 7 5 6 7 12 16 17 17 19 22 25 27 28 28 27 27 29 30 31 31 33 34 36 37 38 39 39 40 41 42 43 44 45 44 43 42
9 8 9 11 12 10 9 9 9 9 9 9 11 18 21 22 24 26 27 28 28 28 28 30 32 33 34 35 36 38 38 39 39 40 40 39 39 40 41 42 43 44 44 43
9 8 8 11 12 10 10 10 11 12 12 11 8 11 19 23 25 27 28 29 29 29 30 32 33 33 34 35 37 38 39 40 40 41 41 40 39 38 39 40 40 40 41 41
12 8 7 10 10 11 12 10 11 12 14 15 13 9 16 21 24 27 28 28 29 30 31 33 35 35 35 36 37 39 39 40 41 41 41 40 38 37 37 38 38 38 37 38
12 10 9 12 12 12 13 14 15 16 16 18 19 15 18 22 25 27 29 31 32 33 34 36 39 40 39 38 38 39 40 40 41 42 41 40 38 36 34 34 34 33 34 34
12 12 12 14 15 15 16 17 18 19 20 20 21 23 24 26 29 31 33 35 35 37 38 40 43 45 44 42 40 40 41 40 40 41 41 39 37 35 32 30 29 29 29 29
12 13 14 14 17 18 18 19 21 23 23 23 23 27 30 30 32 34 35 36 38 40 43 45 47 48 48 47 45 43 43 42 41 40 39 38 36 35 32 30 28 27 26 26
14 14 14 16 19 19 19 20 22 24 26 27 28 31 32 34 35 37 38 40 42 45 47 48 49 50 51 51 50 48 45 44 42 39 38 36 35 34 32 30 28 26 24 23
18 16 15 16 20 21 22 24 26 26 27 28 31 33 35 38 41 42 44 46 48 50 51 51 52 52 53 54 53 51 47 44 42 39 36 35 34 32 31 30 28 25 23 22
20 20 19 18 20 22 25 26 26 27 28 31 33 36 37 40 44 47 48 51 54 56 57 58 57 57 56 56 55 53 48 44 42 39 36 34 32 31 30 29 27 25 22 21
22 22 22 23 23 26 28 29 31 33 34 35 37 39 41 44 48 51 54 57 59 61 62 63 63 62 61 60 58 55 50 44 41 39 37 34 32 30 28 27 26 24 22 20
26 27 29 30 31 32 34 35 37 39 40 40 42 43 46 49 53 56 59 63 64 65 67 68 69 69 68 65 61 58 52 46 42 39 38 35 32 29 28 27 25 23 21 18
30 31 33 35 37 38 38 38 39 43 44 44 47 51 54 58 61 62 64 67 69 71 73 74 74 74 72 69 65 61 56 50 45 40 38 36 34 31 28 26 25 23 21 18
32 33 34 36 39 41 42 41 42 44 48 52 55 59 61 64 68 72 74 77 78 79 79 80 80 79 76 74 70 67 62 54 49 45 41 37 36 33 30 27 25 23 20 18
34 35 36 37 39 39 41 44 46 49 53 57 61 66 70 73 75 77 79 81 82 82 80 79 76 73 70 70 69 67 63 57 52 48 44 40 37 36 32 28 26 23 20 18
34 34 34 35 38 41 44 47 51 55 60 64 69 72 75 78 79 80 81 81 78 75 69 62 57 54 53 54 55 55 56 56 54 52 49 44 39 37 34 31 28 24 20 18
31 32 35 37 40 44 48 53 58 63 68 72 74 76 79 81 82 82 79 72 64 54 48 46 45 45 44 45 45 45 47 51 54 54 51 47 42 38 36 33 30 26 21 18
30 33 37 42 47 52 56 61 66 71 74 75 76 77 77 76 73 68 60 51 44 40 40 41 42 42 42 42 42 42 42 45 50 53 52 47 42 40 37 35 33 28 24 20
35 39 45 50 55 60 65 70 75 78 80 79 77 72 65 60 57 52 47 42 41 41 42 43 43 42 42 41 40 39 39 43 46 48 49 47 44 41 39 37 35 31 26 22
Wind_Direction
207 213 219 225 226 226 233 233 228 227 227 231 241 249 256 266 273 279 282 284 286 289 291 293 297 298 298 298 295 290 285 282 282 282 281 281 280 280 280 280 280 279 278 277
198 204 218 219 218 217 217 223 223 225 228 228 232 241 251 260 268 276 281 284 287 289 292 296 299 300 299 299 299 296 293 290 288 287 286 284 282 281 280 279 279 279 279 278
218 223 222 223 227 233 232 235 232 230 236 245 250 256 263 270 274 276 278 280 283 286 289 292 296 297 296 297 297 297 295 293 291 290 290 289 288 286 284 282 282 282 282 282
241 248 251 245 245 252 253 255 256 249 242 242 252 259 262 268 272 275 276 275 276 281 288 294 298 295 292 292 294 294 294 294 293 292 289 288 286 285 284 283 282 283 284 284
247 255 265 270 266 258 261 268 269 266 252 244 244 254 263 265 269 273 276 278 285 292 296 297 297 295 293 293 295 296 297 297 296 293 290 287 285 284 283 282 281 281 282 282
251 262 273 285 286 276 279 280 273 266 262 250 250 257 263 274 283 288 291 292 298 299 297 297 298 299 302 304 304 303 301 300 297 295 292 289 286 284 282 282 281 281 280 281
271 277 284 296 310 322 314 305 287 263 263 263 267 273 281 291 294 295 295 295 298 300 303 305 308 310 314 315 314 312 311 309 306 301 297 293 289 286 284 283 282 282 282 282
329 308 297 299 309 321 319 315 314 298 276 272 271 275 284 291 292 293 297 302 306 311 315 318 319 321 324 325 325 324 323 321 317 312 308 301 295 291 288 286 285 285 286 286
339 331 305 297 302 304 304 305 309 311 307 296 280 282 286 291 294 297 301 306 311 317 321 323 322 323 325 326 327 327 327 326 324 322 318 312 303 296 293 291 290 289 289 288
324 319 295 284 288 287 282 284 291 298 306 301 290 291 292 291 294 299 304 310 315 319 321 320 318 317 319 320 321 322 325 326 327 326 324 318 310 301 296 294 294 293 292 290
323 325 302 290 290 291 297 301 298 299 304 307 304 299 297 294 294 297 301 307 311 313 314 313 311 312 313 314 315 316 319 321 323 324 324 321 315 306 299 296 296 295 293 291
314 317 308 299 301 301 304 310 306 303 303 304 304 303 294 292 293 298 303 307 310 311 310 308 307 307 309 310 310 311 312 314 316 319 322 321 317 310 303 298 296 296 295 294
309 309 309 301 301 300 301 302 300 297 297 297 300 302 296 296 300 303 305 306 306 304 302 301 300 302 303 305 306 307 308 310 311 314 318 320 317 312 306 301 299 299 299 299
311 309 306 299 293 291 293 294 292 290 291 293 293 291 295 299 301 301 301 299 297 295 295 296 298 299 300 301 302 303 304 306 308 310 313 316 316 312 306 301 300 301 302 302
312 307 302 297 293 294 296 291 289 287 288 288 290 293 297 299 299 298 297 297 296 296 296 297 297 296 297 297 298 299 300 300 303 306 308 311 313 311 305 299 299 300 302 303
315 308 302 296 296 299 297 294 295 293 293 294 296 298 301 301 300 298 298 297 295 294 294 294 293 293 294 294 295 296 296 296 296 299 303 305 308 308 303 297 296 298 300 301
316 310 306 302 299 299 300 304 305 303 302 301 299 299 300 297 295 294 293 292 292 292 292 293 293 293 293 293 293 294 294 293 292 293 296 298 301 302 299 294 292 294 296 298
316 311 309 309 308 312 311 311 310 307 305 303 302 300 298 295 294 294 293 292 292 292 292 293 292 291 290 290 289 290 289 289 288 288 289 291 292 294 292 288 287 287 290 294
318 316 316 317 316 314 311 313 312 307 305 305 303 299 295 292 291 290 289 289 290 289 288 287 286 287 287 286 285 284 283 282 281 282 282 282 283 284 283 280 278 279 281 286
315 315 316 317 315 313 311 312 309 305 304 301 296 292 291 291 291 291 289 289 289 288 288 287 286 286 285 284 282 280 278 275 272 272 273 274 274 274 273 270 267 267 271 275
312 313 314 312 310 307 309 306 302 297 295 295 295 296 296 296 295 295 294 293 292 292 291 290 289 287 285 282 279 275 273 269 264 262 263 264 265 264 261 258 255 256 260 265
311 311 309 306 304 302 302 299 299 299 300 299 299 298 297 297 297 296 295 295 294 294 294 293 291 289 287 283 279 273 267 262 256 252 251 253 255 253 250 246 243 245 250 256
313 312 309 307 306 305 305 305 305 304 303 301 300 300 299 299 298 297 297 298 297 296 295 295 294 294 293 290 283 273 263 254 246 243 243 244 246 246 242 237 234 236 242 248
318 315 312 310 310 309 309 308 308 307 306 305 304 303 300 298 298 298 298 297 295 294 295 296 297 299 298 298 291 278 263 249 240 236 235 236 238 239 236 230 227 228 233 239
319 316 314 314 314 314 313 313 313 312 310 307 304 302 301 300 300 299 298 294 291 291 294 297 297 297 298 298 296 284 265 247 239 235 232 231 231 232 230 225 220 221 225 229
322 321 320 320 320 319 318 318 316 314 312 311 310 310 309 308 307 306 302 298 296 296 297 297 295 294 293 293 294 290 271 249 240 234 230 228 228 227 224 220 216 215 219 222
Height
5879 5881 5882 5883 5885 5887 5888 5889 5889 5890 5890 5890 5890 5891 5891 5890 5890 5889 5888 5886 5886 5885 5884 5882 5880 5876 5873 5869 5866 5864 5861 5859 5856 5854 5851 5849 5847 5845 5843 5841 5840 5838 5836 5835
5878 5879 5880 5881 5882 5883 5884 5884 5884 5884 5885 5885 5885 5886 5885 5885 5884 5882 5880 5878 5879 5879 5877 5876 5873 5870 5867 5863 5860 5856 5853 5850 5847 5844 5841 5839 5837 5836 5833 5831 5829 5827 5826 5824
5876 5877 5877 5879 5879 5880 5880 5879 5880 5880 5881 5881 5881 5881 5880 5879 5877 5876 5874 5872 5872 5872 5870 5868 5866 5863 5860 5857 5853 5849 5846 5842 5839 5835 5832 5829 5827 5825 5824 5822 5820 5818 5816 5815
5873 5874 5875 5876 5876 5875 5875 5875 5875 5877 5878 5877 5877 5874 5875 5873 5871 5869 5868 5866 5865 5864 5863 5861 5859 5856 5854 5850 5846 5842 5838 5834 5831 5828 5825 5822 5819 5816 5814 5812 5811 5809 5807 5805
5871 5870 5871 5871 5872 5871 5870 5869 5869 5869 5869 5870 5869 5867 5869 5867 5865 5863 5861 5860 5858 5858 5857 5855 5853 5850 5847 5843 5838 5834 5830 5826 5822 5819 5816 5813 5810 5807 5805 5803 5801 5800 5798 5795
5869 5869 5869 5869 5868 5867 5866 5866 5865 5864 5864 5864 5863 5863 5863 5860 5859 5857 5855 5854 5853 5852 5851 5849 5846 5842 5838 5834 5830 5825 5821 5817 5813 5809 5805 5802 5799 5797 5794 5792 5791 5789 5787 5786
5868 5868 5867 5867 5866 5865 5864 5864 5863 5862 5861 5861 5859 5857 5857 5855 5853 5852 5850 5848 5847 5845 5843 5840 5837 5833 5829 5826 5821 5817 5813 5808 5803 5799 5795 5791 5787 5785 5782 5781 5779 5777 5776 5774
5867 5867 5866 5865 5864 5863 5862 5861 5861 5861 5859 5858 5855 5852 5852 5849 5847 5845 5843 5841 5839 5836 5834 5831 5827 5824 5821 5817 5813 5809 5804 5800 5795 5790 5785 5780 5776 5772 5770 5768 5766 5765 5763 5762
5865 5866 5865 5863 5862 5862 5860 5859 5858 5857 5856 5855 5852 5849 5846 5844 5841 5839 5836 5834 5832 5829 5826 5824 5821 5817 5814 5811 5806 5802 5797 5792 5787 5782 5776 5771 5765 5761 5758 5756 5754 5752 5751 5749
5864 5863 5862 5860 5860 5859 5858 5857 5856 5854 5853 5851 5850 5847 5843 5839 5836 5834 5832 5829 5827 5825 5822 5819 5816 5813 5810 5806 5802 5797 5791 5786 5780 5774 5769 5762 5756 5751 5748 5745 5743 5741 5739 5736
5862 5862 5860 5858 5857 5856 5855 5854 5852 5850 5849 5847 5845 5847 5840 5836 5833 5831 5828 5825 5823 5820 5817 5814 5810 5807 5804 5800 5795 5790 5785 5779 5774 5768 5762 5755 5749 5743 5739 5736 5733 5731 5728 5725
5861 5860 5858 5857 5855 5854 5852 5850 5848 5847 5845 5842 5840 5842 5836 5832 5828 5825 5823 5820 5816 5813 5810 5806 5802 5798 5795 5792 5787 5782 5778 5773 5767 5761 5755 5749 5743 5737 5732 5728 5725 5722 5719 5716
5859 5858 5857 5855 5854 5852 5850 5848 5845 5842 5840 5838 5835 5835 5828 5826 5823 5820 5817 5813 5810 5806 5802 5798 5793 5789 5785 5782 5778 5774 5769 5764 5759 5754 5748 5743 5737 5731 5727 5722 5718 5715 5712 5709
5857 5856 5855 5854 5850 5847 5846 5844 5841 5838 5834 5832 5830 5826 5822 5820 5817 5814 5810 5807 5803 5798 5794 5789 5784 5779 5775 5771 5768 5764 5759 5755 5750 5746 5740 5736 5730 5725 5721 5717 5713 5709 5706 5703
5855 5853 5851 5848 5845 5843 5841 5838 5836 5832 5829 5826 5823 5819 5817 5813 5809 5805 5802 5797 5793 5788 5783 5778 5772 5767 5762 5758 5755 5752 5749 5745 5741 5737 5732 5728 5723 5719 5714 5711 5707 5704 5701 5698
5852 5850 5847 5845 5841 5839 5836 5833 5830 5827 5823 5819 5816 5812 5809 5804 5798 5794 5790 5785 5780 5775 5769 5765 5760 5755 5750 5745 5741 5739 5736 5733 5730 5727 5723 5719 5715 5711 5708 5705 5702 5699 5696 5693
5848 5845 5843 5841 5838 5834 5831 5828 5824 5820 5816 5812 5808 5805 5799 5793 5786 5782 5777 5772 5766 5760 5755 5750 5745 5740 5735 5731 5727 5725 5723 5721 5718 5715 5713 5710 5707 5704 5701 5698 5695 5693 5691 5688
5844 5841 5838 5835 5832 5828 5825 5820 5816 5811 5807 5802 5797 5792 5787 5781 5773 5767 5761 5755 5749 5743 5737 5732 5727 5723 5719 5715 5712 5710 5709 5707 5706 5704 5701 5699 5697 5695 5693 5691 5689 5687 5685 5683
5838 5834 5830 5826 5823 5820 5816 5811 5805 5799 5795 5791 5785 5779 5773 5766 5760 5753 5746 5738 5731 5725 5719 5713 5708 5703 5700 5696 5694 5693 5693 5693 5692 5691 5690 5688 5687 5685 5684 5683 5682 5680 5679 5678
5831 5827 5823 5819 5814 5810 5808 5803 5795 5789 5782 5778 5771 5764 5756 5749 5742 5737 5729 5721 5714 5707 5699 5693 5687 5682 5678 5675 5673 5673 5675 5676 5677 5677 5677 5676 5676 5675 5674 5674 5674 5674 5673 5672
5824 5820 5817 5811 5806 5800 5795 5790 5785 5779 5772 5763 5755 5747 5738 5730 5721 5713 5705 5696 5688 5681 5674 5667 5661 5656 5651 5648 5647 5649 5652 5655 5658 5660 5662 5663 5664 5664 5664 5665 5666 5666 5666 5665
5817 5813 5809 5803 5797 5793 5786 5778 5772 5765 5757 5748 5739 5729 5719 5710 5700 5690 5680 5671 5663 5654 5647 5639 5633 5628 5622 5617 5616 5618 5623 5630 5636 5641 5644 5648 5650 5651 5652 5654 5657 5658 5659 5659
5810 5805 5799 5794 5789 5781 5774 5766 5758 5750 5741 5731 5720 5709 5697 5686 5676 5666 5656 5647 5638 5629 5622 5615 5609 5604 5599 5593 5590 5591 5596 5602 5610 5618 5624 5629 5634 5637 5640 5643 5647 5650 5651 5652
5803 5796 5790 5783 5777 5770 5763 5754 5744 5733 5722 5710 5697 5685 5673 5661 5651 5641 5632 5623 5615 5609 5602 5597 5592 5587 5582 5576 5571 5570 5572 5577 5585 5594 5603 5610 5617 5623 5627 5631 5637 5641 5644 5645
5796 5789 5782 5775 5767 5759 5749 5738 5726 5714 5700 5688 5676 5664 5650 5637 5627 5617 5609 5603 5597 5593 5589 5583 5578 5573 5568 5562 5557 5553 5553 5557 5564 5573 5583 5591 5600 5608 5614 5620 5626 5632 5636 5638
5788 5782 5774 5765 5754 5744 5732 5719 5705 5691 5678 5664 5651 5638 5627 5614 5603 5596 5590 5586 5582 5578 5574 5569 5563 5558 5553 5548 5544 5540 5538 5541 5546 5555 5565 5575 5585 5594 5601 5608 5615 5622 5627 5631